Date String (YYYY-MM-DD hh:mm:ss) UTC,Instrument flags,Ambient pressure (hPa),Sample flow (lpm),Bypass flow (lpm),Sample temperature (°C),Ambient temperature (°C),ASC tube jacket temperature (°C),LED temperature (°C),Box temperature (°C),Sample RH (%),Span deviation,Mass concentration (μg/m³),Mass concentration (μg/m³),Mass concentration (μg/m³)
DateTimeUTC,F1_M11,P_M11,Q1_M11,Q2_M11,T1_M11,T2_M11,T3_M11,T4_M11,T5_M11,U1_M11,ZSPAN_M11,X2_M11,X0_M11,X1_M11
2023-04-26 01:00:00,,0827.8,5.00,0.00,24.7,23.2,00.0,33.2,26.3,23.8,0000.0,0002.58,0006.68,0001.86
2023-04-26 01:01:00,,0827.7,5.00,0.00,24.7,23.2,00.0,33.2,26.3,23.8,0000.0,0002.58,0006.71,0001.84
2023-04-26 01:02:00,,0827.7,5.01,0.00,24.7,23.2,00.0,33.2,26.3,23.8,0000.0,0002.59,0006.74,0001.82
2023-04-26 01:03:00,,0827.8,4.99,0.00,24.7,23.2,00.0,33.2,26.3,23.7,0000.0,0002.56,0006.68,0001.80
2023-04-26 01:04:00,,0827.7,5.00,0.00,24.7,23.2,00.0,33.2,26.3,23.8,0000.0,0002.56,0006.72,0001.78
2023-04-26 01:05:00,,0827.8,4.99,0.00,24.7,23.2,00.0,33.2,26.3,23.7,0000.0,0002.60,0006.95,0001.77
2023-04-26 01:06:00,,0827.8,4.99,0.00,24.7,23.2,00.0,33.1,26.3,23.8,0000.0,0002.57,0007.34,0001.77
2023-04-26 01:07:00,,0827.8,5.00,0.00,24.7,23.1,00.0,33.1,26.3,23.8,0000.0,0002.51,0006.86,0001.76
2023-04-26 01:08:00,,0827.8,5.00,0.00,24.7,23.1,00.0,33.1,26.3,23.9,0000.0,0002.45,0006.57,0001.75
2023-04-26 01:09:00,,0827.8,5.00,0.00,24.7,23.2,00.0,33.1,26.3,23.8,0000.0,0002.43,0005.35,0001.74
2023-04-26 01:10:00,,0827.8,5.00,0.00,24.7,23.1,00.0,33.1,26.3,23.9,0000.0,0002.40,0005.22,0001.73
2023-04-26 01:11:00,,0827.9,5.00,0.00,24.7,23.1,00.0,33.1,26.3,23.9,0000.0,0002.37,0005.19,0001.73
2023-04-26 01:12:00,,0827.9,5.00,0.00,24.7,23.1,00.0,33.1,26.2,23.9,0000.0,0002.33,0005.04,0001.73
2023-04-26 01:13:00,,0827.9,5.00,0.00,24.6,23.1,00.0,33.1,26.2,23.9,0000.0,0002.27,0005.29,0001.73
2023-04-26 01:14:00,,0828.0,5.00,0.00,24.6,23.1,00.0,33.1,26.2,24.0,0000.0,0002.26,0005.33,0001.74
2023-04-26 01:15:00,,0828.1,5.00,0.00,24.6,23.1,00.0,33.1,26.2,24.0,0000.0,0002.25,0005.32,0001.74
2023-04-26 01:16:00,,0828.1,5.01,0.00,24.6,23.1,00.0,33.1,26.2,24.0,0000.0,0002.20,0005.19,0001.73
2023-04-26 01:17:00,,0828.0,5.01,0.00,24.6,23.1,00.0,33.1,26.2,23.9,0000.0,0002.20,0003.98,0001.72
2023-04-26 01:18:00,,0828.1,5.00,0.00,24.6,23.1,00.0,33.1,26.2,23.9,0000.0,0002.20,0003.83,0001.73
2023-04-26 01:19:00,,0828.1,5.00,0.00,24.6,23.1,00.0,33.1,26.2,23.9,0000.0,0002.23,0003.88,0001.75
2023-04-26 01:20:00,,0828.1,5.00,0.00,24.6,23.1,00.0,33.1,26.2,23.9,0000.0,0002.27,0003.88,0001.75
2023-04-26 01:21:00,,0828.1,5.00,0.00,24.6,23.0,00.0,33.1,26.2,23.9,0000.0,0002.24,0003.83,0001.74
2023-04-26 01:22:00,,0828.1,5.00,0.00,24.6,23.0,00.0,33.0,26.2,23.8,0000.0,0002.24,0003.83,0001.72
2023-04-26 01:23:00,,0828.1,5.00,0.00,24.6,23.0,00.0,33.0,26.1,23.7,0000.0,0002.20,0003.78,0001.69
2023-04-26 01:24:00,,0828.2,5.00,0.00,24.6,23.0,00.0,33.0,26.1,23.7,0000.0,0002.14,0003.42,0001.66
2023-04-26 01:25:00,,0828.2,5.00,0.00,24.5,23.0,00.0,33.0,26.1,23.7,0000.0,0002.08,0003.19,0001.63
2023-04-26 01:26:00,,0828.2,5.00,0.00,24.5,23.0,00.0,33.0,26.1,23.7,0000.0,0002.06,0003.15,0001.62
2023-04-26 01:27:00,,0828.2,5.00,0.00,24.5,23.0,00.0,33.0,26.1,23.7,0000.0,0002.05,0003.12,0001.60
2023-04-26 01:28:00,,0828.2,5.00,0.00,24.5,23.0,00.0,33.0,26.1,23.7,0000.0,0002.06,0003.05,0001.60
2023-04-26 01:29:00,,0828.3,5.00,0.00,24.5,23.0,00.0,33.0,26.1,23.8,0000.0,0002.09,0003.22,0001.59
2023-04-26 01:30:00,,0828.3,5.00,0.00,24.5,23.0,00.0,33.0,26.1,23.8,0000.0,0002.06,0003.22,0001.56
2023-04-26 01:31:00,,0828.3,4.99,0.00,24.5,23.0,00.0,33.0,26.1,23.8,0000.0,0001.99,0003.08,0001.53
2023-04-26 01:32:00,,0828.3,5.00,0.00,24.5,23.0,00.0,33.0,26.1,23.8,0000.0,0002.01,0003.09,0001.52
2023-04-26 01:33:00,,0828.4,5.01,0.00,24.5,23.0,00.0,33.0,26.1,23.8,0000.0,0001.99,0003.01,0001.54
2023-04-26 01:34:00,,0828.3,5.00,0.00,24.5,23.0,00.0,33.0,26.1,23.9,0000.0,0001.98,0002.97,0001.55
2023-04-26 01:35:00,,0828.3,5.00,0.00,24.5,23.0,00.0,33.0,26.1,23.9,0000.0,0002.01,0003.01,0001.56
2023-04-26 01:36:00,,0828.4,4.99,0.00,24.5,23.0,00.0,33.0,26.1,23.9,0000.0,0002.07,0003.13,0001.57
2023-04-26 01:37:00,,0828.3,5.00,0.00,24.5,23.0,00.0,33.0,26.1,23.9,0000.0,0002.08,0004.32,0001.58
2023-04-26 01:38:00,,0828.4,5.01,0.00,24.5,23.0,00.0,33.0,26.1,24.0,0000.0,0002.06,0004.31,0001.58
2023-04-26 01:39:00,,0828.3,5.01,0.00,24.5,23.0,00.0,33.0,26.1,24.0,0000.0,0002.03,0004.35,0001.59
2023-04-26 01:40:00,,0828.3,5.00,0.00,24.5,23.0,00.0,33.0,26.1,24.1,0000.0,0002.02,0004.40,0001.60
2023-04-26 01:41:00,,0828.3,4.99,0.00,24.5,23.0,00.0,32.9,26.1,24.1,0000.0,0002.10,0004.65,0001.62
2023-04-26 01:42:00,,0828.3,4.98,0.00,24.5,23.0,00.0,32.9,26.0,24.2,0000.0,0002.18,0004.91,0001.65
2023-04-26 01:43:00,,0828.3,5.01,0.00,24.5,23.0,00.0,32.9,26.0,24.2,0000.0,0002.19,0004.94,0001.67
2023-04-26 01:44:00,,0828.3,5.00,0.00,24.5,22.9,00.0,32.9,26.0,24.2,0000.0,0002.24,0005.04,0001.68
2023-04-26 01:45:00,,0828.4,5.01,0.00,24.5,22.9,00.0,32.9,26.0,24.2,0000.0,0002.29,0005.15,0001.72
2023-04-26 01:46:00,,0828.3,4.99,0.00,24.4,22.9,00.0,32.9,26.0,24.2,0000.0,0002.36,0005.37,0001.76
2023-04-26 01:47:00,,0828.4,5.01,0.00,24.4,22.9,00.0,32.9,26.0,24.2,0000.0,0002.39,0005.35,0001.80
2023-04-26 01:48:00,,0828.4,4.99,0.00,24.4,22.9,00.0,32.9,26.0,24.3,0000.0,0002.43,0004.41,0001.83
2023-04-26 01:49:00,,0828.4,5.00,0.00,24.4,22.9,00.0,32.9,26.0,24.3,0000.0,0002.50,0004.29,0001.88
2023-04-26 01:50:00,,0828.4,5.00,0.00,24.4,22.9,00.0,32.9,26.0,24.3,0000.0,0002.54,0004.30,0001.91
2023-04-26 01:51:00,,0828.4,5.00,0.00,24.4,22.9,00.0,32.9,26.0,24.3,0000.0,0002.56,0004.15,0001.94
2023-04-26 01:52:00,,0828.4,5.00,0.00,24.4,22.9,00.0,32.9,26.0,24.3,0000.0,0002.54,0005.24,0001.97
2023-04-26 01:53:00,,0828.4,4.99,0.00,24.4,22.9,00.0,32.9,26.0,24.4,0000.0,0002.52,0005.09,0001.99
2023-04-26 01:54:00,,0828.4,5.00,0.00,24.4,22.8,00.0,32.9,26.0,24.4,0000.0,0002.59,0005.20,0002.01
2023-04-26 01:55:00,,0828.4,5.00,0.00,24.4,22.8,00.0,32.8,26.0,24.4,0000.0,0002.63,0005.31,0002.04
2023-04-26 01:56:00,,0828.4,5.00,0.00,24.4,22.9,00.0,32.8,26.0,24.4,0000.0,0002.70,0005.49,0002.05
2023-04-26 01:57:00,,0828.4,5.00,0.00,24.4,22.8,00.0,32.8,26.0,24.4,0000.0,0002.72,0005.39,0002.05
2023-04-26 01:58:00,,0828.4,5.00,0.00,24.4,22.8,00.0,32.8,25.9,24.4,0000.0,0002.73,0005.38,0002.05
2023-04-26 01:59:00,,0828.4,5.00,0.00,24.3,22.8,00.0,32.8,25.9,24.5,0000.0,0002.68,0005.25,0002.04
